Back to catalog

OPTUS D2

AliveCommunicationsGEO
NORAD 32252·PAYLOAD·🇦🇺 Australia

Launched Oct 5, 2007 from Guiana Space Centre

Loading…

TLE

FreshSource: Space-Track

Epoch: Sep 14, 2026, 13:18 UTC

1 32252U 07044A   26257.55443080  .00000015  00000-0  00000-0 0  9996
2 32252   2.3075  80.8482 0002506 101.5040 266.4776  0.99340182 69433

Track OPTUS D2 in real time with AllMySat

Download on the App Store